Location: Caltech
(34.1382°N, 118.1253°W)
Time: 06:41:43
(UTC-07:00)

A-11 Canister half - All Passes

Search period start: 01 September 2014 00:00
Search period end: 11 September 2014 00:00
Orbit: 1518 x 1682 km, 47.2° (Epoch: 30 August)

Date Brightness Start Highest point End Pass type
(mag) Time Alt. Az. Time Alt. Az. Time Alt. Az.
01 Sep - 06:18:16 10° S 06:25:59 30° SE 06:33:49 10° ENE daylight
01 Sep - 08:20:48 10° WSW 08:30:09 82° NW 08:39:50 10° NE daylight
01 Sep - 10:27:24 10° W 10:36:13 41° NNW 10:45:21 10° NE daylight
01 Sep - 12:34:19 10° NW 12:43:22 42° NNE 12:52:41 10° E daylight
01 Sep - 14:39:36 10° NW 14:49:32 82° NE 14:59:41 10° SE daylight
01 Sep - 16:45:29 10° WNW 16:53:56 33° SW 17:02:31 10° S daylight
02 Sep - 05:55:45 10° S 06:03:11 28° SE 06:10:45 10° ENE visible
02 Sep - 07:57:56 10° SW 08:07:16 86° NW 08:16:55 10° NE daylight
02 Sep - 10:04:24 10° W 10:13:14 42° NNW 10:22:23 10° NE daylight
02 Sep - 12:11:23 10° WNW 12:20:22 41° NNE 12:29:37 10° E daylight
02 Sep - 14:16:43 10° NW 14:26:37 79° NE 14:36:45 10° ESE daylight
02 Sep - 16:22:27 10° WNW 16:31:06 35° SW 16:39:53 10° S daylight
03 Sep - 05:33:15 10° S 05:40:24 26° SE 05:47:39 10° ENE visible
03 Sep - 07:35:05 10° SW 07:44:24 90° SE 07:54:01 10° NE daylight
03 Sep - 09:41:24 10° W 09:50:15 43° NNW 09:59:24 10° NE daylight
03 Sep - 11:48:27 10° WNW 11:57:22 40° N 12:06:33 10° ENE daylight
03 Sep - 13:53:51 10° NW 14:03:41 75° NNE 14:13:47 10° ESE daylight
03 Sep - 15:59:27 10° WNW 16:08:16 38° SW 16:17:15 10° SSE daylight
04 Sep - 05:10:48 10° S 05:17:38 24° SE 05:24:32 10° ENE visible
04 Sep - 07:12:14 10° SW 07:21:32 86° SE 07:31:06 10° NE daylight
04 Sep - 09:18:25 10° W 09:27:17 44° NNW 09:36:27 10° NE daylight
04 Sep - 11:25:31 10° WNW 11:34:22 39° N 11:43:29 10° ENE daylight
04 Sep - 13:30:58 10° NW 13:40:45 72° NNE 13:50:49 10° ESE daylight
04 Sep - 15:36:27 10° WNW 15:45:25 40° SW 15:54:34 10° SSE daylight
05 Sep - 04:48:23 10° S 04:54:51 22° SE 05:01:22 10° E visible
05 Sep - 06:49:25 10° SW 06:58:40 82° SE 07:08:12 10° NE daylight
05 Sep - 08:55:26 10° W 09:04:18 45° NNW 09:13:29 10° NE daylight
05 Sep - 11:02:35 10° WNW 11:11:21 39° N 11:20:25 10° ENE daylight
05 Sep - 13:08:06 10° NW 13:17:50 69° NNE 13:27:50 10° ESE daylight
05 Sep - 15:13:29 10° WNW 15:22:35 43° SW 15:31:52 10° SSE daylight
06 Sep - 04:26:01 10° SSE 04:32:05 20° SE 04:38:10 10° E visible
06 Sep - 06:26:36 10° SW 06:35:49 77° SE 06:45:17 10° NE daylight
06 Sep - 08:32:27 10° W 08:41:21 47° NNW 08:50:33 10° NE daylight
06 Sep - 10:39:38 10° WNW 10:48:21 38° N 10:57:21 10° ENE daylight
06 Sep - 12:45:14 10° NW 12:54:54 66° NNE 13:04:51 10° ESE daylight
06 Sep - 14:50:31 10° WNW 14:59:44 46° SW 15:09:09 10° SSE daylight
07 Sep - 04:03:43 10° SSE 04:09:18 18° SE 04:14:54 10° E visible
07 Sep - 06:03:48 10° SW 06:12:58 73° SE 06:22:23 10° ENE visible
07 Sep - 08:09:28 10° W 08:18:23 48° NNW 08:27:36 10° NE daylight
07 Sep - 10:16:41 10° WNW 10:25:21 38° N 10:34:17 10° ENE daylight
07 Sep - 12:22:21 10° NW 12:31:57 63° NNE 12:41:51 10° ESE daylight
07 Sep - 14:27:35 10° WNW 14:36:53 49° SW 14:46:25 10° SSE daylight
08 Sep - 03:41:31 10° SSE 03:46:32 16° ESE 03:51:34 10° E visible
08 Sep - 05:41:00 10° SW 05:50:08 69° SE 05:59:28 10° ENE visible
08 Sep - 07:46:29 10° W 07:55:26 50° NNW 08:04:40 10° NE daylight
08 Sep - 09:53:43 10° WNW 10:02:21 37° N 10:11:14 10° ENE daylight
08 Sep - 11:59:29 10° NW 12:09:01 60° NNE 12:18:51 10° ESE daylight
08 Sep - 14:04:39 10° WNW 14:14:01 53° SW 14:23:39 10° SSE daylight
08 Sep - 16:15:58 10° WSW 16:17:35 11° WSW 16:19:13 10° SW daylight
09 Sep - 03:19:25 10° SSE 03:23:46 14° ESE 03:28:08 10° E visible
09 Sep - 05:18:14 10° SW 05:27:18 65° SE 05:36:33 10° ENE visible
09 Sep - 07:23:31 10° W 07:32:30 51° NNW 07:41:45 10° NE daylight
09 Sep - 09:30:46 10° WNW 09:39:20 37° N 09:48:11 10° ENE daylight
09 Sep - 11:36:37 10° NW 11:46:04 58° NNE 11:55:50 10° ESE daylight
09 Sep - 13:41:43 10° WNW 13:51:10 56° SW 14:00:53 10° SSE daylight
09 Sep - 15:51:32 10° WSW 15:54:47 12° WSW 15:58:04 10° SW daylight
10 Sep - 02:57:30 10° SE 03:01:00 13° ESE 03:04:31 10° E visible
10 Sep - 04:55:28 10° SSW 05:04:29 60° SE 05:13:38 10° ENE visible
10 Sep - 07:00:33 10° W 07:09:34 53° NNW 07:18:50 10° NE daylight
10 Sep - 09:07:48 10° WNW 09:16:20 37° N 09:25:08 10° ENE daylight
10 Sep - 11:13:44 10° NW 11:23:07 55° NNE 11:32:48 10° ESE daylight
10 Sep - 13:18:49 10° WNW 13:28:18 60° SW 13:38:05 10° SSE daylight
10 Sep - 15:27:45 10° W 15:32:00 14° WSW 15:36:17 10° SSW daylight
